STSS ATRR (USA 205) - Orbit

View from above orbital plane
View from above orbital plane
View from above satellite
View from above satellite

Ground track
Ground track

The orbit data is extracted from the following two-line orbital elements,

1 34903U 09023A   12227.93500447 0.00000020  00000-0  12189-4 0    09
2 34903  98.9260 323.6627 0007000 142.0888 217.9111 14.06102388    07
Epoch (UTC): 14 August 2012 22:26:24
Eccentricity: 0.0007000
inclination: 98.9260°
perigee height: 867 km
apogee height: 878 km
right ascension of ascending node: 323.6627°
argument of perigee: 142.0888°
revolutions per day: 14.06102388
mean anomaly at epoch: 217.9111°
orbit number at epoch: 0

The dashed part of the orbit path shows where the satellite is in the earth's shadow,  

Developed and maintained by Chris Peat, Heavens-Above GmbH. Please read the updated FAQ before sending e-mail. Imprint. DLR